Theta_e
331 329 329 329 328 327 326 325 325 326 326 326 326 327 328 328 328 328 328 328 329 328 328 327 328 328 330 331 332 333 333 334 334 335 336 335 333 332 329 331 332 333 333
331 329 329 329 328 327 326 325 325 325 324 324 324 324 325 325 325 325 325 325 326 326 326 326 327 327 327 327 327 328 330 332 335 337 339 339 333 329 329 328 332 334 335
331 329 328 327 327 326 325 324 324 324 325 325 325 325 325 326 327 329 331 333 333 334 334 334 333 332 330 328 327 327 326 326 327 328 330 335 340 338 335 330 333 333 334
331 329 328 326 325 325 326 327 329 331 333 334 335 335 335 336 338 338 338 338 337 336 336 335 335 335 336 336 336 336 334 332 330 328 326 326 328 332 337 336 336 338 339
330 329 328 328 328 330 331 333 336 339 341 341 341 341 340 339 338 336 331 324 321 320 320 320 320 320 321 322 325 327 331 335 336 335 334 333 330 326 326 331 334 337 338
331 331 331 332 333 335 336 338 340 341 340 335 331 329 325 324 323 322 321 321 322 323 323 323 322 322 322 324 325 324 324 324 324 328 330 331 333 334 331 326 326 330 337
332 333 334 336 337 338 341 340 334 328 322 320 321 321 323 322 322 321 319 317 317 317 317 317 318 319 321 322 325 327 328 329 330 329 327 327 328 331 333 335 331 327 332
335 336 338 340 341 341 334 319 320 322 322 322 325 324 321 320 317 314 313 313 313 313 313 312 313 314 316 319 322 324 326 328 329 330 332 333 333 334 334 334 335 334 330
338 341 341 336 327 320 317 321 322 321 319 322 321 316 314 313 314 314 313 312 311 311 311 310 310 310 310 311 312 313 315 318 322 327 328 330 332 335 340 336 334 336 335
341 330 319 317 316 318 320 322 323 322 319 318 316 315 315 315 314 314 313 313 313 313 313 312 311 310 309 309 309 309 312 311 310 314 320 325 328 330 333 334 334 335 337
321 316 316 318 321 322 323 323 323 321 319 316 315 316 315 315 315 314 314 314 314 313 313 312 311 310 309 308 308 308 308 309 309 310 310 313 320 325 328 330 331 334 338
318 321 323 323 323 323 324 324 323 321 318 317 316 315 315 315 315 315 315 315 314 313 313 312 311 311 310 308 307 307 308 307 307 307 307 310 311 313 318 325 328 330 334
325 326 326 325 324 324 324 324 324 321 317 317 316 315 315 315 315 315 315 314 313 311 310 309 308 309 308 308 308 307 307 307 306 306 306 306 308 309 311 312 319 325 329
327 327 327 327 326 325 325 325 324 319 317 316 315 315 315 315 315 315 313 311 309 308 307 306 306 308 309 309 308 307 306 306 306 306 306 307 307 307 308 309 309 315 322
326 327 327 327 327 326 326 325 323 319 317 316 316 315 315 316 315 313 310 309 309 309 309 307 305 305 306 307 306 306 306 306 306 306 306 307 306 306 307 309 308 308 311
326 327 328 328 329 327 326 324 320 317 317 316 316 315 316 316 314 313 311 310 311 311 310 308 306 306 306 306 307 307 308 307 307 307 307 306 306 308 307 307 310 309 309
326 327 328 328 328 326 323 319 317 318 318 317 316 316 317 316 316 313 312 312 313 310 309 307 306 307 308 308 308 308 308 308 308 308 309 309 310 311 310 308 308 311 311
330 328 327 328 324 320 319 319 319 319 318 317 315 317 318 317 316 314 314 314 313 312 309 307 307 308 308 308 308 308 309 310 309 309 310 310 311 311 312 314 313 313 314
326 323 322 320 319 319 320 320 320 319 317 316 316 319 319 317 316 315 314 314 313 311 309 308 308 308 308 308 308 309 310 310 311 311 311 312 313 314 315 314 314 315 314
322 320 320 320 325 323 319 319 319 318 316 318 320 319 319 317 315 314 313 313 311 310 309 308 308 308 309 309 310 311 311 311 311 312 313 312 314 314 314 315 314 313 315
322 322 325 329 325 320 320 324 318 317 319 320 319 319 318 316 315 314 313 312 310 309 308 308 308 308 308 310 311 310 310 311 312 312 312 313 314 314 314 314 314 315 320
326 327 330 326 321 324 322 322 318 320 320 319 319 318 316 316 315 313 312 310 309 308 307 307 308 308 309 309 309 309 310 311 311 309 311 314 314 313 312 314 317 319 322
328 329 328 325 323 322 322 321 321 319 318 317 317 316 315 314 313 312 310 309 308 307 307 307 307 308 307 308 308 309 310 311 310 310 310 313 311 311 311 313 316 319 320
330 323 321 322 323 323 322 321 320 318 317 317 316 315 314 313 312 311 308 307 307 307 307 306 306 306 306 307 307 308 309 310 310 310 308 309 310 310 311 314 316 318 320
325 324 324 325 324 323 322 321 319 318 317 316 316 315 314 312 310 308 307 306 306 307 305 305 305 306 306 306 307 308 309 309 309 309 310 309 308 311 312 316 317 318 320
327 325 326 325 324 323 322 319 318 318 317 317 315 314 312 310 308 307 305 305 305 305 304 305 306 306 306 306 307 308 309 309 308 308 309 309 309 311 312 315 317 317 320
Wind_Speed
14 12 11 10 8 9 10 10 10 10 11 12 12 11 11 11 11 10 9 9 8 7 6 5 4 3 3 4 5 5 6 7 7 7 7 6 5 5 4 3 2 2 2
13 14 12 10 9 9 11 12 13 13 13 13 14 13 13 12 12 12 11 11 10 9 8 7 6 7 7 7 7 8 8 8 9 9 9 9 8 7 7 6 5 4 5
13 14 13 12 10 11 12 14 15 15 16 16 16 15 15 15 15 14 13 12 11 10 9 9 8 7 7 7 8 8 9 10 10 11 11 11 11 10 10 9 8 8 8
13 14 13 13 13 13 14 15 16 16 16 16 15 15 14 14 13 12 11 10 9 8 7 6 6 6 6 7 7 8 9 9 9 10 11 12 13 13 13 12 14 13 13
14 14 14 14 15 15 15 15 15 15 14 14 14 13 12 12 10 9 9 9 9 9 9 9 9 9 9 10 11 12 13 14 14 12 12 12 13 14 15 16 18 19 18
16 16 15 14 15 15 15 15 13 12 12 12 11 11 12 11 10 10 10 11 11 11 11 12 13 13 13 13 13 14 15 16 16 17 17 16 15 15 16 17 19 20 21
17 16 16 15 14 14 14 13 13 13 13 13 13 14 13 12 10 10 10 11 12 13 14 14 14 14 14 15 15 15 16 17 16 17 17 18 18 18 18 17 18 20 22
16 17 16 15 14 15 16 15 16 16 13 12 12 11 10 11 11 12 13 13 14 14 15 16 17 17 18 18 18 18 18 18 17 17 18 18 17 19 20 19 19 20 21
18 17 17 18 18 18 19 17 16 14 12 12 10 9 11 11 11 12 13 14 15 16 17 18 19 19 20 20 20 20 21 22 21 20 19 18 17 18 19 20 21 22 23
21 20 21 22 22 21 19 17 15 13 12 11 11 9 9 10 11 12 13 15 16 17 18 20 21 22 24 24 23 22 21 21 21 23 23 22 22 21 20 20 21 22 23
24 24 24 24 22 20 17 15 12 10 9 8 8 6 4 5 7 11 14 17 19 20 20 21 23 24 25 25 24 23 22 22 22 23 23 24 25 26 25 25 23 21 22
29 28 25 23 21 18 15 12 9 6 5 4 3 1 4 9 14 18 20 22 24 25 26 27 28 28 28 27 26 26 26 27 27 28 28 26 25 26 28 30 29 26 24
31 30 27 24 21 18 16 12 8 7 6 4 2 6 10 14 18 21 24 27 29 30 32 33 34 33 32 33 33 32 32 32 32 32 30 28 28 27 28 29 31 31 31
33 30 28 24 20 18 15 12 10 9 5 4 6 9 12 16 20 23 25 26 28 30 32 33 34 34 35 35 37 38 36 34 33 31 30 28 28 28 29 29 29 34 35
36 32 28 25 21 19 15 12 12 9 7 6 6 8 12 17 21 22 22 23 24 28 30 32 33 34 36 38 38 37 36 35 34 34 34 32 30 30 30 30 32 32 33
30 29 28 26 21 17 15 15 11 8 6 4 6 10 14 19 19 21 20 19 25 29 30 32 33 33 34 35 36 35 36 37 36 35 34 35 33 30 30 31 31 32 33
33 30 27 23 20 17 15 12 8 7 4 4 5 8 14 14 18 19 19 23 29 32 34 35 33 33 34 33 33 33 35 34 34 31 30 29 29 30 28 27 28 30 31
27 26 25 22 20 15 12 8 7 5 5 5 6 12 16 19 20 21 23 28 33 35 37 35 34 33 32 31 32 31 30 29 28 27 28 27 27 27 25 20 24 28 30
28 26 21 19 14 11 9 9 7 7 6 8 12 18 20 22 21 23 26 30 34 37 38 35 33 30 29 28 28 28 27 26 24 23 23 23 20 20 19 23 24 25 28
25 21 17 11 7 10 9 8 11 10 11 14 18 21 24 25 23 24 29 32 35 37 37 36 33 27 26 26 25 25 23 17 18 15 16 22 20 16 18 20 23 25 25
23 18 9 3 6 7 7 5 17 14 14 16 18 24 26 24 25 28 31 33 36 36 36 33 30 27 26 23 25 24 23 19 11 19 26 18 15 15 19 21 24 24 24
20 12 2 2 5 5 12 11 18 16 17 18 23 25 25 26 27 28 31 34 34 36 34 29 26 25 23 21 22 24 16 20 11 28 23 12 19 18 24 22 21 22 21
15 7 6 5 10 15 10 15 17 17 21 21 24 24 24 25 27 30 33 34 34 32 28 25 22 21 23 23 20 14 10 9 29 26 24 17 28 25 27 19 19 19 20
11 5 23 18 18 10 11 17 17 20 23 25 26 25 24 26 30 32 32 34 33 27 25 24 22 22 22 22 21 14 13 19 19 19 32 29 29 30 23 20 18 16 19
6 11 10 11 16 16 14 19 21 23 26 27 26 27 28 30 30 31 32 33 28 24 23 24 20 20 18 19 17 17 16 18 17 23 25 33 35 27 25 15 15 14 13
7 9 13 14 15 14 17 21 23 26 28 28 27 28 31 33 31 30 28 25 21 18 19 18 18 17 16 16 16 14 13 16 19 20 25 29 31 33 26 20 11 11 9
Wind_Direction
151 150 136 128 132 136 130 123 117 111 107 103 99 92 90 90 86 85 84 80 73 71 64 53 40 21 1 345 334 328 325 325 327 329 328 324 318 311 303 298 297 332 339
154 146 131 126 131 132 127 121 115 111 107 104 103 100 96 93 92 88 83 79 71 62 54 45 30 15 359 346 336 327 320 315 313 314 312 311 312 307 292 276 269 290 305
159 135 128 124 126 119 114 112 110 107 105 102 99 99 99 95 89 82 79 76 72 64 54 45 36 24 11 354 340 330 320 313 306 299 296 294 292 292 297 267 264 274 282
148 129 123 124 123 118 114 111 109 108 105 103 101 99 97 94 90 87 78 67 56 48 39 31 19 2 346 334 323 313 308 304 300 296 291 285 279 275 275 270 264 266 274
139 128 126 125 123 121 118 117 114 109 105 101 100 99 92 86 82 74 59 46 38 35 30 18 6 352 339 326 316 309 304 300 295 291 287 283 281 277 270 263 261 261 269
140 133 130 129 127 127 126 122 116 112 107 98 94 86 80 77 70 58 46 38 31 22 12 3 355 347 339 331 323 315 306 298 292 290 290 287 283 280 275 268 262 260 259
142 137 134 135 133 131 125 120 116 110 100 97 95 90 83 74 69 51 34 24 16 7 358 351 345 339 332 325 320 316 312 309 306 295 288 284 280 279 276 270 267 262 257
144 141 141 140 139 136 129 120 114 108 102 92 92 81 69 59 51 41 29 22 15 7 358 351 342 333 326 319 314 310 306 305 304 299 292 290 289 281 274 269 264 259 255
149 150 146 143 144 141 134 126 116 107 102 101 88 78 73 67 56 40 26 19 12 4 357 350 341 334 327 321 315 310 304 298 294 292 289 289 286 281 276 272 268 263 257
156 157 153 150 148 143 137 127 115 106 101 93 86 81 64 46 35 27 21 15 5 356 350 344 338 334 330 326 320 313 306 302 296 288 283 281 279 275 276 274 272 267 261
161 156 154 153 151 148 146 139 130 116 107 104 91 85 66 32 16 10 4 358 354 347 343 339 336 332 329 325 322 317 312 306 301 296 289 280 276 273 271 272 273 272 263
163 161 163 164 163 162 159 153 145 135 146 151 141 84 350 2 0 357 354 348 343 340 337 335 332 328 324 322 318 314 310 306 300 298 293 287 281 274 270 268 269 268 267
170 172 175 179 178 178 173 170 173 182 184 186 286 336 351 355 352 349 345 341 339 339 337 334 331 327 324 321 319 317 313 310 306 302 296 289 284 280 273 268 266 266 264
181 182 180 180 179 177 180 179 190 197 213 275 309 335 348 348 349 346 344 343 342 339 335 331 327 322 318 316 314 312 312 311 309 305 300 296 289 281 276 272 269 263 262
186 184 182 180 183 185 192 201 212 217 237 258 305 337 346 349 349 347 342 340 338 337 332 326 320 314 310 308 307 307 307 307 305 302 299 296 295 290 281 275 269 270 267
187 184 181 184 191 197 209 218 217 225 233 292 326 337 347 349 346 339 335 336 336 335 332 328 323 316 311 308 306 305 305 305 306 305 302 297 295 292 284 276 274 271 270
195 194 189 187 196 207 218 221 224 222 242 281 321 338 341 344 338 334 329 331 336 338 335 331 327 321 315 312 308 306 304 306 305 306 304 299 295 294 295 285 279 277 272
190 183 176 182 192 204 222 222 224 233 267 296 314 333 336 335 333 332 330 329 335 337 334 329 325 321 317 313 309 307 309 309 308 304 299 298 297 295 298 291 282 281 280
180 175 177 183 193 213 238 247 252 260 280 301 318 322 326 328 326 327 330 331 333 332 332 326 322 320 318 317 312 313 313 311 308 303 297 299 308 307 297 300 293 286 285
172 172 176 178 244 251 246 266 268 275 288 297 302 315 325 326 323 325 329 330 328 328 327 324 321 319 319 319 317 318 320 324 326 319 316 316 318 311 300 301 299 292 288
170 175 160 284 221 229 261 288 275 274 279 293 311 320 321 322 322 321 323 323 323 322 323 323 320 319 322 327 332 328 335 330 334 329 326 322 315 321 319 311 305 300 296
173 162 313 111 194 283 285 293 261 277 297 308 312 320 318 314 312 315 320 320 320 319 322 320 318 319 323 332 327 330 329 336 317 326 334 329 334 330 328 318 315 308 298
163 202 94 8 312 273 279 266 281 293 300 301 312 311 305 307 313 317 317 318 319 321 322 322 321 319 324 316 317 322 323 318 326 331 333 321 325 325 325 315 317 320 308
155 355 323 263 285 261 254 264 279 290 292 301 306 304 305 309 311 313 316 319 320 319 321 323 322 317 318 314 317 319 311 317 319 325 323 329 328 326 332 321 325 310 326
221 293 311 253 269 251 260 272 282 288 293 296 299 299 299 301 309 313 316 318 315 317 318 322 323 321 322 318 318 316 317 316 323 325 317 325 329 341 345 346 338 315 327
260 289 253 248 255 263 273 281 289 294 289 290 290 295 301 308 313 318 319 318 318 321 327 334 336 336 329 325 321 315 307 318 316 320 316 319 328 331 347 345 324 319 305